FW3129 Weather Reports


Display with metric or nautical units.
time (UTC)temp
F
wind
direction
speed
MPH
gust
MPH
rain 1hr
in
rain 24hr
in
rain mn
in
humidity
%
barometer
mb
20260903093036 77 0 0.0 0.0 0.00 0.94 0.38 99 1014.9
20260903091545 77 0 0.0 0.0 0.00 0.94 0.38 99 1014.7
20260903090043 77 0 0.0 0.0 0.00 0.94 0.38 99 1014.7
20260903084534 77 0 0.0 0.0 0.00 0.94 0.38 99 1014.6
20260903083030 77 0 0.0 0.0 0.00 0.94 0.38 99 1014.5
20260903081534 77 0 0.0 0.0 0.00 0.94 0.38 99 1014.6
20260903080031 77 0 0.0 1.0 0.00 0.94 0.38 99 1014.7
20260903074538 77 0 0.0 1.0 0.00 0.94 0.38 99 1014.6
20260903073035 77 118 0.0 1.0 0.00 0.94 0.38 99 1014.5
20260903071545 77 0 0.0 0.0 0.00 0.94 0.38 99 1014.6
20260903070033 77 118 0.0 1.0 0.00 0.94 0.38 99 1014.8
20260903064535 77 0 0.0 3.0 0.00 0.94 0.38 99 1015.1
20260903063035 77 0 0.0 3.0 0.00 0.94 0.38 99 1015.4
20260903061532 77 120 0.0 0.0 0.00 0.94 0.38 99 1015.4
20260903060031 77 0 0.0 1.0 0.00 0.94 0.38 99 1015.6
20260903054536 77 120 0.0 2.0 0.06 0.94 0.38 99 1015.7
20260903053030 77 120 0.0 4.0 0.21 0.94 0.38 99 1016.4
20260903051551 77 154 0.0 5.0 0.24 0.94 0.38 99 1016.4
20260903050033 76 127 1.0 4.0 0.37 0.94 0.38 99 1016.4
20260903044540 77 77 3.0 9.0 0.31 0.87 0.31 98 1016.6
20260903043112 77 146 1.0 9.0 0.16 0.72 0.16 97 1016.9
20260903041535 77 163 2.0 10.0 0.14 0.70 0.14 96 1017.3
20260903040032 81 120 4.0 12.0 0.00 0.56 0.00 88 1017.1
20260903034540 83 42 0.0 4.0 0.00 0.56 0.56 89 1016.8
20260903033033 82 283 0.0 2.0 0.00 0.56 0.56 90 1016.7
20260903031534 82 268 0.0 1.0 0.00 0.56 0.56 91 1016.8
20260903030032 82 0 0.0 0.0 0.00 0.56 0.56 91 1016.8
20260903024535 82 0 0.0 0.0 0.00 0.56 0.56 90 1016.5
20260903023034 83 0 0.0 1.0 0.00 0.56 0.56 89 1016.5
20260903021536 83 268 0.0 1.0 0.00 0.56 0.56 90 1016.7
20260903020034 82 0 0.0 0.0 0.00 0.56 0.56 91 1016.4
20260903014534 82 0 0.0 1.0 0.00 0.56 0.56 91 1016.4
20260903013036 82 0 0.0 0.0 0.00 0.56 0.56 91 1016.5
20260903011534 82 0 0.0 1.0 0.00 0.56 0.56 90 1016.5
20260903010039 82 0 0.0 0.0 0.00 0.56 0.56 90 1016.2
20260903004535 82 0 0.0 0.0 0.00 0.57 0.56 90 1015.9
20260903003032 82 0 0.0 1.0 0.00 0.57 0.56 89 1015.9
20260903001532 83 268 0.0 1.0 0.00 0.57 0.56 88 1015.8
20260903000033 83 0 0.0 1.0 0.00 0.57 0.56 89 1015.7
20260902234535 83 0 0.0 0.0 0.00 0.62 0.56 87 1015.8
20260902233031 84 0 0.0 0.0 0.00 0.62 0.56 86 1015.7
20260902231535 84 0 0.0 7.0 0.00 0.62 0.56 85 1015.8
20260902230034 85 239 0.0 4.0 0.00 0.62 0.56 86 1015.4
20260902224544 85 0 0.0 0.0 0.00 0.72 0.56 84 1015.4
20260902223035 85 0 0.0 1.0 0.00 0.72 0.56 84 1015.3
20260902221537 86 0 0.0 1.0 0.00 0.72 0.56 83 1015.2
20260902220034 86 0 0.0 2.0 0.00 0.72 0.56 82 1015.2
20260902214535 87 0 0.0 3.0 0.00 0.72 0.56 80 1015.4
20260902213036 87 156 1.0 6.0 0.00 0.72 0.56 80 1015.5
20260902211534 87 141 2.0 5.0 0.00 0.72 0.56 80 1015.4
20260902210033 87 119 0.0 4.0 0.00 0.72 0.56 80 1015.3
20260902204539 85 0 0.0 1.0 0.00 0.72 0.56 88 1015.4
20260902203036 84 0 0.0 1.0 0.00 0.72 0.56 88 1015.5
20260902201546 84 0 0.0 2.0 0.06 0.72 0.56 89 1015.9
20260902200049 82 0 0.0 5.0 0.32 0.72 0.56 93 1016.0
20260902194534 80 229 3.0 5.0 0.36 0.72 0.56 94 1016.1
20260902193034 79 0 0.0 1.0 0.36 0.72 0.56 94 1016.5
20260902191535 78 0 0.0 5.0 0.28 0.64 0.48 93 1016.8
20260902190049 81 349 2.0 10.0 0.03 0.39 0.23 85 1016.9
20260902184534 85 315 4.0 10.0 0.00 0.36 0.20 78 1017.0
20260902183032 91 120 1.0 6.0 0.00 0.36 0.20 74 1016.7
20260902181534 91 144 5.0 10.0 0.00 0.36 0.20 74 1016.4
20260902180035 92 188 4.0 8.0 0.00 0.36 0.20 74 1016.4
20260902174533 91 233 4.0 7.0 0.00 0.36 0.20 74 1016.7
20260902173034 90 141 3.0 6.0 0.00 0.36 0.20 74 1017.1
20260902171535 89 274 3.0 6.0 0.00 0.36 0.20 76 1017.4
20260902170035 90 141 2.0 6.0 0.04 0.36 0.20 77 1017.4
20260902164533 88 0 0.0 1.0 0.13 0.36 0.20 80 1017.5
20260902163032 85 115 0.0 3.0 0.20 0.36 0.20 86 1017.8
20260902161542 85 208 1.0 3.0 0.20 0.36 0.20 89 1017.8
20260902160035 86 278 0.0 5.0 0.16 0.32 0.16 84 1018.0
20260902154533 90 110 1.0 6.0 0.05 0.21 0.05 78 1018.1
20260902153031 90 46 2.0 7.0 0.00 0.16 0.00 75 1017.9
20260902151531 91 112 3.0 8.0 0.00 0.16 0.00 74 1018.0
20260902150033 90 123 2.0 6.0 0.00 0.16 0.00 76 1017.9
20260902144532 90 96 2.0 6.0 0.00 0.16 0.00 75 1017.7
20260902143033 89 195 2.0 6.0 0.00 0.16 0.00 77 1017.6
20260902141536 88 123 0.0 4.0 0.00 0.16 0.00 79 1017.5
20260902140033 88 227 0.0 3.0 0.00 0.16 0.00 80 1017.3
20260902134536 87 24 0.0 2.0 0.00 0.16 0.00 82 1017.2
20260902133035 86 0 0.0 1.0 0.00 0.16 0.00 85 1017.4
20260902131535 84 44 1.0 4.0 0.00 0.16 0.00 88 1017.5
20260902130036 83 38 0.0 4.0 0.00 0.16 0.00 91 1017.6
20260902124533 81 312 1.0 3.0 0.00 0.16 0.00 93 1017.4
20260902123035 80 0 0.0 1.0 0.00 0.16 0.00 97 1017.3
20260902121537 78 21 0.0 1.0 0.00 0.16 0.00 98 1017.1
20260902120032 77 0 0.0 1.0 0.00 0.16 0.00 98 1017.2
20260902114537 77 0 0.0 1.0 0.00 0.16 0.00 99 1017.3
20260902113032 77 0 0.0 1.0 0.00 0.16 0.00 98 1017.1
20260902111542 76 0 0.0 0.0 0.00 0.16 0.00 98 1017.0
20260902110037 76 0 0.0 0.0 0.00 0.16 0.00 98 1016.8
20260902104540 76 0 0.0 0.0 0.00 0.19 0.00 98 1016.7
20260902103030 76 0 0.0 0.0 0.00 0.19 0.00 98 1016.8
20260902101539 76 0 0.0 0.0 0.00 0.19 0.00 98 1016.8
20260902100034 76 0 0.0 0.0 0.00 0.19 0.00 98 1016.4
20260902094538 76 0 0.0 0.0 0.00 0.21 0.00 98 1016.3